Regional Weather Roundup
Issued by NWS Newport/Morehead, NC

Current Version | Previous Version | Graphics & Text | Print | Product List | Glossary Off
Versions: 1 2 3 4 5 6 7 8 9 10 11 12 13 14 15 16 17 18 19 20 21 22 23 24 25 26 27 28 29 30 31 32 33 34 35 36 37 38 39 40 41 42 43 44 45 46 47 48 49 50

900
ASUS42 KMHX 290713
RWRMHX
WEATHER ROUNDUP FOR EASTERN NORTH CAROLINA
NATIONAL WEATHER SERVICE NEWPORT/MOREHEAD CITY NC
300 AM EDT FRI APR 29 2016

NOTE: "FAIR" INDICATES FEW OR NO CLOUDS BELOW 12,000 FEET
WITH NO SIGNIFICANT WEATHER AND/OR OBSTRUCTIONS TO VISIBILITY

NCZ015>017-031-032-045>047-102-103-290800-
NORTH COAST

CITY           SKY/WX    TMP DP  RH WIND       PRES   REMARKS
EDENTON        CLOUDY    59  59 100 NE5       29.92F
ELIZABETH CITY CLOUDY    57  55  93 CALM      29.90F
KITTY HAWK     NOT AVBL
MANTEO         NOT AVBL

$$

NCZ045>047-081-094-103-104-290800-
CENTRAL COAST

CITY           SKY/WX    TMP DP  RH WIND       PRES   REMARKS
FRISCO         RAIN      68  67  96 SW3       29.87F
SWANQUARTER    NOT AVBL

$$

NCZ095-097-098-100-101-290800-
SOUTHERN COAST

CITY           SKY/WX    TMP DP  RH WIND       PRES   REMARKS
BEAUFORT       CLOUDY    70  67  90 SW5       29.88F
CEDAR ISLAND   NOT AVBL
JACKSONVILLE   CLOUDY    66  63  90 CALM      29.87F
PINEY ISLAND   NOT AVBL
WILMINGTON     CLEAR     69  66  90 SW7       29.88S


$$

NCZ011>013-027>030-043-044-078>080-089-090>093-098-290800-
COASTAL PLAIN

CITY           SKY/WX    TMP DP  RH WIND       PRES   REMARKS
AHOSKIE        CLOUDY    56  55  97 CALM      29.92S
CLINTON        CLOUDY    65  64  98 SE3       29.87F
ELIZABETHTOWN  MOCLDY    68  66  93 CALM      29.89R
GOLDSBORO      CLOUDY    66  66 100 NE5       29.87F
GREENVILLE     CLOUDY    64  64 100 NW3       29.93R
HAVELOCK       CLOUDY    68  66  93 S5        29.89F
KENANSVILLE    CLOUDY    68  65  93 CALM      29.90S
KINSTON        LGT RAIN  67  66  97 CALM      29.91S
NEW BERN       CLOUDY    67  65  93 W5        29.90R
RICHLANDS      CLOUDY    67  64  90 CALM      29.89S
ROCKY MOUNT    CLOUDY    60  60 100 NE10      29.93R FOG
WASHINGTON     DRIZZLE   66  65  96 N6        29.89F
WHITEVILLE     CLEAR     68  66  92 CALM      29.87S

$$

AMZ130-135-150-152-154-156-158-170-250-252-270-ANZ085-086-088-633-658-670-290800-
MARINE OBSERVATIONS

STATION/POSITION TIME  TEMP    WIND        PRES    WAVE   SWELL
                       AIR SEA DIR/SP/G            HT/PER HT/PER
                 (UTC) (F)     (DEG/KT/KT) (MB)    (FT/S) (FT/S)
CHESAPEAKE LIGHT 0600   54      60/ 14/ 15 1013.4
64 E VA BEACH    0650   56 54   30/  6/  8 1012.2    3/ 6   3/ 6
DUCK             0600   56 66   10/ 20/ 22 1012.3
2 E DUCK         0611      58                N/A     3/ 3
OREGON INLET     0600   58 70  360/ 10/ 14 1012.0
13E OREGON INLT  0600      59                N/A     4/ 6   3/ 6
HATTERAS CG      0600   68 70  250/  5/  7 1011.4
DIAMOND BUOY     0650   71 71  260/ 10/ 14 1011.6    4/ 5   2/ 5
CAPE LOOKOUT     0700   69     280/  4/  4 1011.8
BEAUFORT LAB     0600   70 67  230/  3/  6 1011.4
30 SE NEW RVR IN 0625      67                N/A     3/ 5
27 SE WRIGHTSVLE 0608   72 69  230/ 14/ 17 1015.0
5 SE WRIGHTSVLE  0608   69 67  240/ 10/ 14 1012.4
225 S CAPE HAT   0650   71 71  190/ 10/ 12 1014.9    3/11   2/11
41 SE CHARLESTON 0650   73 71  230/ 16/ 17 1012.6    3/ 4   2/10

$$




USA.gov is the U.S. government's official web portal to all federal, state and local government web resources and services.